Weather History for Paganella, Italy

Change the Weather History Date:

Friday, April 26, 2013

  Actual Average Record
Temperature  
Mean Temperature 38 °F -  
Max Temperature 41 °F 43 °F 48 °F (2007)
Min Temperature 33 °F 32 °F 24 °F (2004)
Degree Days  
Heating Degree Days 27    
Moisture  
Dew Point 34 °F    
Average Humidity 82    
Maximum Humidity 100    
Minimum Humidity 61    
Precipitation  
Precipitation 0.01 in 0.08 in - ()
Sea Level Pressure  
Sea Level Pressure 30.13 in    
Wind  
Wind Speed 14 mph ()    
Max Wind Speed 30 mph    
Max Gust Speed -    
Visibility 5.7 miles    
Events Fog , Rain    
Averages and records for this station are not official NWS values.
T = Trace of Precipitation, MM = Missing Value Source: Averaged Metar Reports

Daily Weather History Graph

Daily Weather History Graph

Search for Another Location

Airport:

Trip Planner

Search our weather history database for the weather conditions in past years. The results will help you decide how hot, cold, wet, or windy it might be!

Date:

Astronomy

Apr. 26, 2013 Rise Set
Actual Time 6:10 AM CEST 8:17 PM CEST
Civil Twilight 5:37 AM CEST 8:50 PM CEST
Nautical Twilight 4:57 AM CEST 9:30 PM CEST
Astronomical Twilight 4:13 AM CEST 10:15 PM CEST
Moon 9:25 PM CEST (4/26) 6:22 AM CEST (4/26)
Length of Visible Light 15h 12m
Length of Day
14h 07m
Full, 100% of the Moon is Illuminated
Apr 26
Full
May 2
Last Quarter
May 10
New
May 18
First Quarter
May 25
Full

Hourly Weather History & Observations

Time (CEST) Temp. Windchill Dew Point Humidity Pressure Visibility Wind Dir Wind Speed Gust Speed Precip Events Conditions
12:55 AM 41.0 °F 35.2 °F 33.8 °F 76% 30.30 in - SSW 9.2 mph - N/A   Clear
1:55 AM 39.2 °F 32.0 °F 35.6 °F 87% 30.30 in - South 11.5 mph - N/A   Clear
2:00 AM 40 °F - 36 °F 81%  in 31 mi South 11.5 mph - -  
2:55 AM 39.2 °F 32.5 °F 30.2 °F 70% 30.27 in - South 10.4 mph - N/A   Clear
3:55 AM 39.2 °F 33.0 °F 28.4 °F 65% 30.27 in - SSW 9.2 mph - N/A   Clear
4:55 AM 39.2 °F 30.5 °F 30.2 °F 70% 30.24 in - SSW 16.1 mph - N/A   Clear
5:00 AM 39 °F - 31 °F 63%  in 19 mi SSW 16.1 mph - -   Partly Cloudy
5:55 AM 39.2 °F 30.8 °F 28.4 °F 65% 30.24 in 6.2 mi SW 15.0 mph - N/A   Scattered Clouds
6:55 AM 39.2 °F 30.5 °F 26.6 °F 61% 30.21 in 6.2 mi SW 16.1 mph - N/A   Scattered Clouds
7:55 AM 41.0 °F 33.1 °F 32.0 °F 70% 30.21 in 6.2 mi SSW 15.0 mph - N/A   Partly Cloudy
8:00 AM 40 °F - 32 °F 65%  in 19 mi SSW 15.0 mph - -   Mostly Cloudy
8:55 AM 39.2 °F 31.2 °F 28.4 °F 65% 30.21 in 6.2 mi SSW 13.8 mph - N/A   Partly Cloudy
9:55 AM 39.2 °F 31.2 °F 32.0 °F 75% 30.18 in 6.2 mi SW 13.8 mph - N/A   Partly Cloudy
10:55 AM 39.2 °F 30.2 °F 33.8 °F 81% 30.18 in 6.2 mi SW 17.3 mph - N/A   Partly Cloudy
11:00 AM 40 °F - 33 °F 69%  in 19 mi SW 17.3 mph - -   Scattered Clouds
11:55 AM 41.0 °F 33.1 °F 35.6 °F 81% 30.18 in 6.2 mi SW 15.0 mph - N/A   Partly Cloudy
12:55 PM 41.0 °F 32.2 °F 37.4 °F 87% 30.15 in 6.2 mi SW 18.4 mph - N/A Rain Light Rain
1:55 PM 41.0 °F 31.9 °F 37.4 °F 87% 30.12 in 6.2 mi SW 19.6 mph - N/A Rain Light Rain
2:00 PM 41 °F - 37 °F 82%  in 12 mi SW 19.6 mph - - Rain Light Rain
2:55 PM 41.0 °F 31.9 °F 37.4 °F 87% 30.09 in 6.2 mi SSW 19.6 mph - N/A Rain Light Rain
3:55 PM 41.0 °F 32.2 °F 35.6 °F 81% 30.06 in 6.2 mi SW 18.4 mph - N/A   Partly Cloudy
4:55 PM 39.2 °F 29.8 °F 39.2 °F 100% 30.04 in 0.3 mi SSW 18.4 mph - N/A Fog Fog
5:00 PM 40 °F - 39 °F 95%  in 0 mi SSW 18.4 mph - - Fog Heavy Fog
5:55 PM 39.2 °F 30.2 °F 39.2 °F 100% 30.01 in 0.1 mi South 17.3 mph - N/A Fog Fog
6:55 PM 39.2 °F 29.8 °F 35.6 °F 87% 30.01 in 6.2 mi SSW 18.4 mph - N/A   Scattered Clouds
7:55 PM 37.4 °F 27.2 °F 37.4 °F 100% 29.98 in 0.1 mi SSW 19.6 mph - N/A Fog Fog
8:00 PM 37 °F - 37 °F 100%  in 0 mi SSW 19.6 mph - - Fog Heavy Fog
8:55 PM 35.6 °F 23.2 °F 35.6 °F 100% 29.98 in 0.0 mi SSW 26.5 mph - N/A Fog Fog
9:55 PM 35.6 °F 23.4 °F 35.6 °F 100% 29.95 in 0.6 mi SSW 25.3 mph - N/A Fog , Rain Light Rain
10:55 PM 35.6 °F 23.4 °F 33.8 °F 93% 29.95 in 0.6 mi SSW 25.3 mph - N/A Fog , Rain Light Rain
11:00 PM 36 °F - 33 °F 84%  in 1 mi SSW 25.3 mph - - Rain Light Rain
11:55 PM 33.8 °F 20.1 °F 33.8 °F 100% 29.92 in 1.9 mi SSW 29.9 mph - N/A   Mostly Cloudy